FENGYUN 1C DEB

Satellite information

Favourite Embed

Satellite Type and Status

DEBRISIN ORBIT

Key statistics

Satellite FENGYUN 1C DEB at a glance.

Uptime

9556

Days in orbit

Revolutions

≈ 14.0

Per day

Orbit

SSO

Sun Synchronous Orbit

Inclination

97.6

Latest

Satellite identification and parameters

Extended collection of information and parameters for FENGYUN 1C DEB.

Object identification

Identified? True

Debris? True

Object name: FENGYUN 1C DEB

International designator: 1999-025DSK

Object number (NORAD): 36162

Object ID (CCSDS): 36162

Country: PEOPLES REPUBLIC OF CHINA (PRC)

Current information (Y/N): Y

RCS size: SMALL

Orbital parameters

Period: 102.879 minutes

Inclination: 97.6086 deg

SMA: 7272.954 km

Apoapsis: 1086.52 km

Periapsis: 703.118 km

RAAN: 10.5565 deg

Eccentricy: 0.0263581

Argument of periapsis: 227.2301 deg

Mean anomaly: 130.6426 deg

Mean motion: 13.99704891 rev/day

Mean motion (dot): 0.00004458 rev/day2

B* drag term: 0.0022742 1/REarth

Two-line elements (TLE)

Creation date: July 4, 2025, 6:39 p.m.

Reference frame: TEME

Reference center: EARTH

Epoch: July 4, 2025, 7:56 a.m. UTC

TLE line 0: 0 FENGYUN 1C DEB

TLE line 1: 1 36162U 99025DSK 25185.33111740 .00004458 00000-0 22742-2 0 9994

TLE line 2: 2 36162 97.6086 10.5565 0263581 227.2301 130.6426 13.99704891682627

Live tracking on map

Real-time ground track for satellite FENGYUN 1C DEB.

In-orbit conjunctions

A list of the most updated potential collisions computed for object FENGYUN 1C DEB.

Target Orbit TCA Probability of collision Miss distance Type
CZ-6A DEB LEO 2025-02-12 12:45:58 0.0002477349 783.0 (m) DEBRIS
CZ-4C DEB LEO 2024-09-27 22:08:28 0.0006418364 306.0 (m) DEBRIS

Associated space launch

Chinese polar orbiting meteorological satellite

FENGYUN 1C DEB was lifted into orbit during the mission ‘Long March 4B | Feng Yun 1C’, on board a Long March 4B space rocket.

The launch took place on May 10, 1999, 1:33 a.m. from Launch Complex 7.

For more information about the launch, click the button.

Launch to space Long March 4B | Feng Yun 1C
Long March 4B | Feng Yun 1C

Agency: N/A

Status: Launch Successful

Launch date: May 10, 1999, 1:33 a.m. UTC

Rocket: Long March 4B

Launch pad: Launch Complex 7

Location: Taiyuan Satellite Launch Center, People's Republic of China

...

Latest news about this satellite

There are no fresh news available about this satellite. Check back as we update our databases every day.


Newsletter sign-up

Weekly statistics, charts and insights to help you stay on top of the space industry.